Hourly Data Report for November 22, 2019

OTTAWA INTL A
ONTARIO
Current Station Operator: NAVCAN

45°19'00.000" N
75°40'00.000" W
114.90 m
6106001
71628
YOW

Download Data

Hourly Data (November 2019)
Hourly Data Report for November 22, 2019
TIME Temp Definition
°C
Dew Point Definition
°C
Rel Hum Definition
%
Wind Dir Definition
10's deg

Wind Spd Definition
km/h
Visibility Definition
km
Stn Press Definition
kPa
Hmdx Definition


Wind Chill Definition


Weather Definition


00:00 1.4 0.7 95 13 18 24.1 99.00     Rain
01:00 1.5 0.9 96 12 12 16.1 98.86     Rain
02:00 2.0 1.6 97 13 9 16.1 98.76     Rain
03:00 5.0 4.6 97 19 25 24.1 98.64     Rain
04:00 5.7 5.2 97 20 25 24.1 98.54     Rain
05:00 6.1 5.7 97 20 22 9.7 98.47     Drizzle,Fog
06:00 6.5 6.2 98 22 17 12.9 98.43     Drizzle
07:00 6.5 4.5 87 25 29 24.1 98.45     Cloudy
08:00 5.1 2.5 83 23 25 24.1 98.51     LegendNANA
09:00 4.8 1.6 80 24 35 24.1 98.54     Rain
10:00 2.8 0.7 86 27 40 24.1 98.71     Rain
11:00 2.7 -2.4 69 29 36 24.1 98.84     LegendNANA
12:00 0.4 -4.8 68 28 40 24.1 99.00     LegendNANA
13:00 0.0 -5.4 67 29 40 24.1 99.09   -7 Mostly Cloudy
14:00 -0.2 -6.1 64 28 37 24.1 99.22   -7 LegendNANA
15:00 -0.3 -6.4 64 29 29 24.1 99.35   -7 LegendNANA
16:00 -0.6 -7.3 61 29 32 24.1 99.45   -7 Mostly Cloudy
17:00 -1.1 -6.9 65 29 37 24.1 99.55   -9 LegendNANA
18:00 -1.6 -8.1 61 29 30 24.1 99.68   -9 LegendNANA
19:00 -2.3 -8.8 61 29 29 24.1 99.80   -9 Mainly Clear
20:00 -2.9 -11.4 52 29 30 24.1 99.87   -10 LegendNANA
21:00 -3.4 -10.1 60 28 26 24.1 99.97   -10 LegendNANA
22:00 -4.1 -9.6 66 27 22 24.1 100.05   -11 Mainly Clear
23:00 -4.5 -10.0 65 27 21 24.1 100.09   -11 LegendNANA

Notes on Data Quality.

Legend

  • E = Estimated
  • M = Missing
  • NA = Not Available*
  • [empty] = Indicates an unobserved value
Date modified: